Regional Weather Roundup
Issued by NWS Charleston, SC

Current Version | Previous Version | Graphics & Text | Print | Product List | Glossary On
Versions: 1 2 3 4 5 6 7 8 9 10 11 12 13 14 15 16 17 18 19 20 21 22 23 24 25 26 27 28 29 30 31 32 33 34 35 36 37 38 39 40 41 42 43 44 45 46 47 48 49 50
000
ASUS42 KCHS 261727
RWRCHS

REGIONAL WEATHER ROUNDUP
NATIONAL WEATHER SERVICE CHARLESTON SC
100 PM EDT SUN MAR 26 2017

NOTE: "FAIR" INDICATES FEW OR NO CLOUDS BELOW 12,000 FEET WITH NO
SIGNIFICANT WEATHER AND/OR OBSTRUCTIONS TO VISIBILITY.

NOT ALL STATIONS ARE QUALITY CONTROLLED. USE DATA WITH CAUTION...
ESPECIALLY DEWPOINT OBSERVATIONS.

SCZ027-030-031-034>040-042>050-261800-
...SOUTHEAST SOUTH CAROLINA...

CITY           SKY/WX    TMP DP  RH WIND       PRES   REMARKS
N CHARLESTON   MOSUNNY   78  52  40 S12G20    30.20F
WATERFRONT PRK   N/A     67  59  75 SE5       30.20S
JOHNS ISLAND   FAIR      77  54  44 S13       30.21F
PINOPOLIS        N/A     73  54  49 VRB2      30.14S
MONCKS CORNER  PTSUNNY   75  48  38 S3        30.19F
SUMMERVILLE    CLOUDY    75  52  43 S5        30.20F
BEAUFORT MCAS  MOSUNNY   77  60  55 S10       30.20F
BEAUFORT ARPT  PTSUNNY   75  59  57 SE7G17    30.19F
HILTON HEAD IS SUNNY     75  64  69 SE6       30.21F
WALTERBORO     PTSUNNY   77  55  47 S9G17     30.20F
ALLENDALE      FAIR      77  55  47 SE13G20   30.16F

...SOUTHERN MIDLANDS AND PEE DEE...

CITY           SKY/WX    TMP DP  RH WIND       PRES   REMARKS
GEORGETOWN     PTSUNNY   73  52  46 S10       30.22F
KINGSTREE      CLOUDY    75  50  41 SW7       30.20F
ORANGEBURG     MOSUNNY   75  55  49 S12       30.19F
BARNWELL       FAIR      77  57  50 S7G16     30.17F
AIKEN          PTSUNNY   72  57  60 S8        30.20F
MANNING        FAIR      73  52  46 S3        30.20F
COLUMBIA       PTSUNNY   77  55  46 S12G18    30.17F
SUMTER         MOSUNNY   75  54  47 S10       30.17F
FLORENCE       CLOUDY    75  53  46 SW12      30.21F
MYRTLE BEACH   PTSUNNY   72  55  56 S8        30.24S
N MYRTLE BEACH PTSUNNY   72  57  59 E7        30.23F

$$

GAZ063-065-086>088-099>101-113>116-118-119-134>141-150-261800-
...SOUTHEAST GEORGIA...

CITY           SKY/WX    TMP DP  RH WIND       PRES   REMARKS
SAVANNAH ARPT  PTSUNNY   76  57  51 S10       30.19F
HUNTER AAF     MOSUNNY   77  62  59 S13       30.16F
FORT STEWART   MOSUNNY   79  58  49 SE7       30.15F
STATESBORO     PTSUNNY   79  60  53 S12       30.16F
SYLVANIA       PTSUNNY  N/A N/A N/A S5        30.17F
CLAXTON        FAIR      77  61  58 SE8       30.16F

...CSRA...CENTRAL AND FAR SOUTHEAST GEORGIA...

CITY           SKY/WX    TMP DP  RH WIND       PRES   REMARKS
THOMSON        PTSUNNY   75  56  52 W13       30.20F
AUGUSTA-BUSH   CLOUDY    76  58  53 S8        30.16F
AUGUSTA-DANIEL CLOUDY    74  55  51 S13       30.17F
SWAINSBORO     CLOUDY    75  55  50 SW9       30.17F
VIDALIA        CLOUDY    77  57  50 S6        30.16F
EASTMAN        PTSUNNY   80  44  27 SW6       30.17F
HAZLEHURST     FAIR      80  61  52 SW8       30.15F
ALMA           CLOUDY    79  58  48 SE10      30.16F
WAYCROSS       PTSUNNY   83  61  48 S7        30.15F
JESUP          PTSUNNY   81  54  39 S8        30.16F
BAXLEY         CLOUDY    79  61  53 S7        30.15F
BRUNSWICK      SUNNY     79  61  53 S14       30.18F THUNDER
SAINT SIMONS   SUNNY     74  62  66 E10       30.19F

$$

SCZ027-028-034-036>038-045-046-048>050-GAZ119-141-261800-
...LAKE AND SUPPLEMENTAL COASTAL OBSERVATIONS...

STATION/POSITION TIME  TEMP    WIND        PRES    WAVE   SWELL
                       AIR SEA DIR/SP/G            HT/PER HT/PER/DIR
                 (UTC) (F)     (DEG/KT/KT) (MB)    (FT/S) (FT/S/D)
WINYAH BAY       1645   72     130/  8     1023.0F
LAKE MURRAY      1650   69     200/  8/ 12 1021.3F
ACE BASIN NERRS  1645   74     180/  3     1023.0S
FORT PULASKI     1700   73 62  160/ 10/ 13 1022.8
SAPELO ISLAND    1700   77     160/ 10     1022.0

$$

ANZ835-935-AMZ111-154-330-350-352-354-370-450-454-472-261800-
...C-MAN AND BUOY OBSERVATIONS...

STATION/POSITION TIME  TEMP    WIND        PRES    WAVE   SWELL
                       AIR SEA DIR/SP/G            HT/PER HT/PER/DIR
                 (UTC) (F)     (DEG/KT/KT) (MB)    (FT/S) (FT/S/D)
BUOY 41004       1650   72 72  150/ 12/ 14 1022.8F   4/ 8   3/130/ 8
BUOY 41008       1650   66 64  120/  4/  6 1022.4F   4/ 9   3/100/ 9
FOLLY BEACH CMAN 1700   69     120/  2/  3 1023.8F
CAPERS NEARSHORE 1708   67      80/  4/  6 1023.1F
FRIPP NEARSHORE  1708   67 62  100/  2/  6 1022.7F


STATION/POSITION TIME  TEMP    WIND        PRES    WAVE   SWELL
                       AIR SEA DIR/SP/G            HT/PER HT/PER/DIR
                 (UTC) (F)     (DEG/KT/KT) (MB)    (FT/S) (FT/S/D)
5E ST. MARYS GA  1700      67                N/A     3/10
FRYING PAN BUOY  1710   71 74  150/ 12/ 16 1023.8
BUOY 41025       1650   70 74  170/  8/ 10 1025.3F   3/ 8   3/170/ 8
CAPE LOOKOUT NC  1700   65     110/ 10/ 10 1024.6F
BUOY 41002       1650   68 72   80/ 12/ 16 1024.8F   5/ 9   5/130/ 9
BUOY 41010       NOT AVBL
ST AUGUSTINE FL  1700   69 69   80/  7/  8 1022.5F


$$



USA.gov is the U.S. government's official web portal to all federal, state and local government web resources and services.